| time (UTC) | temp C | wind direction | speed KPH | gust KPH | rain 1hr cm | rain 24hr cm | rain mn cm | humidity % | barometer mb |
| 20260506183044 | 13 | 222 | 14.5 | 33.8 | 0.03 | 0.03 | 0.03 | 90 | 1009.2 |
| 20260506181559 | 13 | 198 | 12.9 | 33.8 | 0.03 | 0.03 | 0.03 | 89 | 1009.6 |
| 20260506180045 | 13 | 190 | 12.9 | 35.4 | 0.00 | 0.00 | 0.00 | 89 | 1009.8 |
| 20260506174543 | 13 | 209 | 9.7 | 38.6 | 0.00 | 0.00 | 0.00 | 88 | 1010.0 |
| 20260506173053 | 13 | 169 | 14.5 | 37.0 | 0.00 | 0.00 | 0.00 | 87 | 1010.4 |
| 20260506171544 | 14 | 179 | 9.7 | 35.4 | 0.00 | 0.00 | 0.00 | 85 | 1010.6 |
| 20260506170043 | 15 | 211 | 9.7 | 33.8 | 0.00 | 0.00 | 0.00 | 82 | 1010.6 |
| 20260506164547 | 15 | 196 | 11.3 | 43.5 | 0.00 | 0.00 | 0.00 | 83 | 1010.7 |
| 20260506163056 | 15 | 157 | 8.0 | 40.2 | 0.00 | 0.00 | 0.00 | 83 | 1010.6 |
| 20260506161544 | 15 | 195 | 9.7 | 32.2 | 0.00 | 0.00 | 0.00 | 81 | 1010.7 |
| 20260506160045 | 15 | 174 | 19.3 | 38.6 | 0.00 | 0.00 | 0.00 | 80 | 1011.0 |
| 20260506154552 | 16 | 0 | 11.3 | 37.0 | 0.00 | 0.00 | 0.00 | 80 | 1011.3 |
| 20260506153040 | 16 | 181 | 14.5 | 37.0 | 0.00 | 0.00 | 0.00 | 81 | 1011.4 |
| 20260506151547 | 16 | 240 | 12.9 | 32.2 | 0.00 | 0.00 | 0.00 | 81 | 1011.1 |
| 20260506150045 | 16 | 171 | 8.0 | 29.0 | 0.00 | 0.00 | 0.00 | 80 | 1011.4 |
| 20260506144542 | 16 | 207 | 4.8 | 29.0 | 0.00 | 0.00 | 0.00 | 79 | 1011.7 |
| 20260506143042 | 16 | 202 | 9.7 | 32.2 | 0.00 | 0.00 | 0.00 | 80 | 1011.7 |
| 20260506141545 | 16 | 226 | 11.3 | 35.4 | 0.00 | 0.00 | 0.00 | 82 | 1011.8 |
| 20260506140041 | 15 | 233 | 16.1 | 35.4 | 0.00 | 0.00 | 0.00 | 81 | 1012.0 |
| 20260506134545 | 15 | 289 | 6.4 | 25.7 | 0.00 | 0.00 | 0.00 | 83 | 1012.0 |
| 20260506133047 | 15 | 171 | 6.4 | 27.4 | 0.00 | 0.00 | 0.00 | 84 | 1012.0 |
| 20260506131542 | 15 | 196 | 11.3 | 49.9 | 0.00 | 0.00 | 0.00 | 84 | 1011.8 |
| 20260506130041 | 15 | 218 | 9.7 | 29.0 | 0.00 | 0.00 | 0.00 | 85 | 1011.8 |
| 20260506124548 | 14 | 179 | 11.3 | 32.2 | 0.00 | 0.00 | 0.00 | 86 | 1012.0 |
| 20260506123041 | 14 | 177 | 14.5 | 40.2 | 0.00 | 0.00 | 0.00 | 87 | 1012.1 |
| 20260506121553 | 13 | 190 | 6.4 | 30.6 | 0.00 | 0.00 | 0.00 | 88 | 1011.9 |
| 20260506120044 | 13 | 203 | 12.9 | 37.0 | 0.00 | 0.00 | 0.00 | 89 | 1011.7 |
| 20260506114542 | 12 | 0 | 11.3 | 38.6 | 0.00 | 0.00 | 0.00 | 90 | 1011.8 |
| 20260506113041 | 12 | 200 | 11.3 | 29.0 | 0.00 | 0.00 | 0.00 | 90 | 1011.9 |
| 20260506111547 | 12 | 0 | 11.3 | 33.8 | 0.00 | 0.00 | 0.00 | 90 | 1011.9 |
| 20260506110045 | 12 | 198 | 11.3 | 32.2 | 0.00 | 0.00 | 0.00 | 91 | 1011.9 |
| 20260506104547 | 12 | 200 | 9.7 | 29.0 | 0.00 | 0.00 | 0.00 | 91 | 1011.8 |
| 20260506103041 | 12 | 183 | 12.9 | 33.8 | 0.00 | 0.00 | 0.00 | 91 | 1011.7 |
| 20260506101541 | 12 | 155 | 11.3 | 33.8 | 0.00 | 0.00 | 0.00 | 91 | 1011.7 |
| 20260506100048 | 12 | 228 | 12.9 | 35.4 | 0.00 | 0.00 | 0.00 | 91 | 1011.6 |
| 20260506094546 | 12 | 202 | 9.7 | 27.4 | 0.00 | 0.00 | 0.00 | 91 | 1011.6 |
| 20260506093045 | 12 | 227 | 12.9 | 37.0 | 0.00 | 0.00 | 0.00 | 91 | 1011.4 |
| 20260506091542 | 12 | 206 | 9.7 | 41.8 | 0.00 | 0.00 | 0.00 | 90 | 1011.6 |
| 20260506090119 | 12 | 207 | 12.9 | 29.0 | 0.00 | 0.00 | 0.00 | 90 | 1011.6 |
| 20260506084545 | 12 | 225 | 11.3 | 33.8 | 0.00 | 0.00 | 0.00 | 90 | 1011.9 |
| 20260506083049 | 12 | 197 | 8.0 | 30.6 | 0.00 | 0.00 | 0.00 | 90 | 1012.0 |
| 20260506081548 | 12 | 187 | 9.7 | 37.0 | 0.00 | 0.00 | 0.00 | 90 | 1012.1 |
| 20260506073042 | 12 | 213 | 9.7 | 29.0 | 0.00 | 0.00 | 0.00 | 89 | 1012.5 |
| 20260506071542 | 12 | 229 | 8.0 | 27.4 | 0.00 | 0.00 | 0.00 | 89 | 1012.3 |
| 20260506061548 | 13 | 161 | 12.9 | 29.0 | 0.00 | 0.00 | 0.00 | 88 | 1012.1 |
| 20260506050104 | 13 | 196 | 11.3 | 33.8 | 0.00 | 0.00 | 0.00 | 88 | 1012.5 |
| 20260506044544 | 13 | 199 | 12.9 | 33.8 | 0.00 | 0.00 | 0.00 | 87 | 1012.5 |
| 20260506043045 | 13 | 180 | 16.1 | 32.2 | 0.00 | 0.00 | 0.00 | 87 | 1012.6 |
| 20260506041557 | 13 | 203 | 9.7 | 29.0 | 0.00 | 0.00 | 0.00 | 88 | 1012.6 |
| 20260506040047 | 13 | 236 | 11.3 | 29.0 | 0.00 | 0.00 | 0.00 | 88 | 1012.7 |
| 20260506034553 | 12 | 182 | 9.7 | 25.7 | 0.00 | 0.00 | 0.00 | 87 | 1013.0 |
| 20260506033047 | 12 | 244 | 6.4 | 24.1 | 0.00 | 0.00 | 0.00 | 87 | 1013.0 |
| 20260506031544 | 12 | 255 | 3.2 | 20.9 | 0.00 | 0.00 | 0.00 | 87 | 1013.0 |
| 20260506030043 | 12 | 230 | 8.0 | 27.4 | 0.00 | 0.00 | 0.00 | 87 | 1013.0 |
| 20260506024541 | 12 | 258 | 6.4 | 25.7 | 0.00 | 0.00 | 0.00 | 86 | 1013.1 |
| 20260506023049 | 13 | 271 | 3.2 | 22.5 | 0.00 | 0.00 | 0.00 | 85 | 1013.0 |
| 20260506021544 | 13 | 189 | 11.3 | 32.2 | 0.00 | 0.00 | 0.00 | 85 | 1012.8 |
| 20260506020051 | 13 | 181 | 12.9 | 27.4 | 0.00 | 0.00 | 0.00 | 84 | 1012.8 |
| 20260506014541 | 13 | 215 | 6.4 | 29.0 | 0.00 | 0.00 | 0.00 | 83 | 1012.7 |
| 20260506013051 | 13 | 198 | 9.7 | 33.8 | 0.00 | 0.00 | 0.00 | 83 | 1012.6 |
| 20260506011547 | 13 | 225 | 16.1 | 33.8 | 0.00 | 0.00 | 0.00 | 82 | 1012.3 |
| 20260506010048 | 13 | 208 | 11.3 | 43.5 | 0.00 | 0.00 | 0.00 | 82 | 1012.2 |
| 20260506004547 | 14 | 194 | 12.9 | 37.0 | 0.00 | 0.00 | 0.00 | 81 | 1012.0 |
| 20260506003041 | 14 | 205 | 14.5 | 57.9 | 0.00 | 0.00 | 0.00 | 80 | 1011.6 |
| 20260506001539 | 14 | 179 | 12.9 | 46.7 | 0.00 | 0.00 | 0.00 | 80 | 1011.6 |
| 20260506000052 | 14 | 207 | 14.5 | 40.2 | 0.00 | 0.00 | 0.00 | 80 | 1011.4 |
| 20260505234543 | 14 | 206 | 14.5 | 40.2 | 0.00 | 0.00 | 0.00 | 80 | 1011.1 |
| 20260505233046 | 14 | 59 | 16.1 | 41.8 | 0.00 | 0.00 | 0.00 | 79 | 1011.0 |
| 20260505231548 | 15 | 255 | 16.1 | 46.7 | 0.00 | 0.00 | 0.00 | 79 | 1010.7 |
| 20260505230112 | 15 | 201 | 17.7 | 45.1 | 0.00 | 0.00 | 0.00 | 78 | 1010.4 |
| 20260505224543 | 15 | 176 | 14.5 | 45.1 | 0.00 | 0.00 | 0.00 | 78 | 1010.5 |
| 20260505223051 | 15 | 167 | 12.9 | 46.7 | 0.00 | 0.00 | 0.00 | 78 | 1010.4 |
| 20260505221546 | 15 | 217 | 17.7 | 40.2 | 0.00 | 0.00 | 0.00 | 76 | 1010.3 |
| 20260505220054 | 16 | 212 | 11.3 | 37.0 | 0.00 | 0.00 | 0.00 | 75 | 1010.3 |
| 20260505214546 | 16 | 194 | 14.5 | 45.1 | 0.00 | 0.00 | 0.00 | 75 | 1010.0 |
| 20260505213043 | 16 | 173 | 19.3 | 41.8 | 0.00 | 0.00 | 0.00 | 74 | 1010.0 |
| 20260505211559 | 16 | 107 | 19.3 | 45.1 | 0.00 | 0.00 | 0.00 | 74 | 1009.7 |
| 20260505210048 | 17 | 191 | 16.1 | 45.1 | 0.00 | 0.00 | 0.00 | 72 | 1009.4 |
| 20260505204545 | 17 | 171 | 9.7 | 40.2 | 0.00 | 0.00 | 0.00 | 73 | 1009.6 |
| 20260505203044 | 17 | 177 | 16.1 | 45.1 | 0.00 | 0.00 | 0.00 | 72 | 1009.8 |
| 20260505201549 | 17 | 197 | 11.3 | 37.0 | 0.00 | 0.00 | 0.00 | 73 | 1009.8 |
| 20260505200043 | 17 | 0 | 9.7 | 35.4 | 0.00 | 0.00 | 0.00 | 73 | 1010.1 |
| 20260505194545 | 17 | 183 | 11.3 | 32.2 | 0.00 | 0.00 | 0.00 | 73 | 1010.5 |
| 20260505193052 | 17 | 0 | 14.5 | 29.0 | 0.00 | 0.00 | 0.00 | 74 | 1010.6 |
| 20260505191543 | 17 | 188 | 4.8 | 22.5 | 0.00 | 0.00 | 0.00 | 72 | 1011.2 |
| 20260505190047 | 18 | 212 | 9.7 | 25.7 | 0.00 | 0.00 | 0.00 | 73 | 1011.8 |
| 20260505184543 | 18 | 220 | 14.5 | 29.0 | 0.00 | 0.00 | 0.00 | 73 | 1011.9 |